Weather History for Lancaster, OH

Change the Weather History Date:

Saturday, January 18, 2014

  Actual Average Record
Temperature  
Mean Temperature 18 °F -  
Max Temperature 23 °F 34 °F 61 °F (1942)
Min Temperature 12 °F 16 °F -20 °F (1977)
Degree Days  
Heating Degree Days 48    
Moisture  
Dew Point 13 °F    
Average Humidity 78    
Maximum Humidity 88    
Minimum Humidity 65    
Precipitation  
Precipitation 0.03 in - - ()
Sea Level Pressure  
Sea Level Pressure 29.96 in    
Wind  
Wind Speed 9 mph (South)    
Max Wind Speed 12 mph    
Max Gust Speed -    
Visibility 5 miles    
Events Snow    
Averages and records for this station are not official NWS values.
T = Trace of Precipitation, MM = Missing Value Source: NWS Daily Summary

Daily Weather History Graph

Daily Weather History Graph

Search for Another Location

Airport:

Trip Planner

Search our weather history database for the weather conditions in past years. The results will help you decide how hot, cold, wet, or windy it might be!

Date:

Astronomy

Jan. 18, 2014 Rise Set
Actual Time 7:48 AM EST 5:33 PM EST
Civil Twilight 7:19 AM EST 6:03 PM EST
Nautical Twilight 6:46 AM EST 6:36 PM EST
Astronomical Twilight 6:13 AM EST 7:08 PM EST
Moon 8:14 PM EST (1/18) 8:48 AM EST (1/18)
Length of Visible Light 10h 44m
Length of Day
9h 45m
Waning Gibbous, 94% of the Moon is Illuminated
Jan 18
Waning Gibbous
Jan 24
Last Quarter
Jan 30
New
Feb 6
First Quarter
Feb 14
Full

Hourly Weather History & Observations

Time (EST) Temp. Windchill Dew Point Humidity Pressure Visibility Wind Dir Wind Speed Gust Speed Precip Events Conditions
12:53 AM 12.9 °F 0.7 °F 3.9 °F 67% 30.06 in 10.0 mi West 9.2 mph - N/A   Scattered Clouds
1:53 AM 12.0 °F 0.5 °F 5.0 °F 73% 30.05 in 10.0 mi WSW 8.1 mph - N/A   Scattered Clouds
2:53 AM 12.0 °F 2.7 °F 5.0 °F 73% 30.05 in 10.0 mi SSW 5.8 mph - N/A   Mostly Cloudy
3:53 AM 12.9 °F 0.7 °F 6.1 °F 74% 30.05 in 10.0 mi SW 9.2 mph - N/A   Overcast
4:53 AM 12.9 °F 1.6 °F 6.1 °F 74% 30.05 in 10.0 mi SW 8.1 mph - N/A   Overcast
5:53 AM 14.0 °F 2.0 °F 7.0 °F 74% 30.04 in 10.0 mi WSW 9.2 mph - N/A   Overcast
6:53 AM 14.0 °F 3.9 °F 8.1 °F 77% 30.05 in 10.0 mi WSW 6.9 mph - N/A   Overcast
7:53 AM 15.1 °F 5.2 °F 8.1 °F 74% 30.05 in 10.0 mi WSW 6.9 mph - N/A   Overcast
8:46 AM 15.1 °F 4.2 °F 9.0 °F 77% 30.02 in 5.0 mi SW 8.1 mph - 0.00 in Snow Light Snow
8:53 AM 15.1 °F 5.2 °F 9.0 °F 77% 30.07 in 5.0 mi SW 6.9 mph - 0.00 in Snow Light Snow
9:26 AM 15.1 °F 2.5 °F 9.0 °F 77% 30.04 in 2.5 mi SW 10.4 mph - 0.00 in Snow Light Snow
9:33 AM 16.0 °F 5.3 °F 9.0 °F 74% 30.04 in 1.8 mi SW 8.1 mph - 0.00 in Snow Light Snow
9:49 AM 15.8 °F 4.2 °F 10.4 °F 79% 30.04 in 2.0 mi SW 9.2 mph - 0.00 in Snow Light Snow
9:53 AM 16.0 °F 3.6 °F 10.0 °F 77% 30.09 in 1.8 mi SW 10.4 mph - 0.00 in Snow Light Snow
10:25 AM 17.1 °F 5.0 °F 10.9 °F 77% 30.05 in 2.0 mi SW 10.4 mph - 0.00 in Snow Light Snow
10:37 AM 17.1 °F 5.0 °F 10.9 °F 77% 30.05 in 2.5 mi SW 10.4 mph - 0.00 in Snow Light Snow
10:53 AM 18.0 °F 6.9 °F 10.9 °F 74% 30.09 in 3.0 mi SW 9.2 mph - 0.00 in Snow Light Snow
11:53 AM 19.0 °F 6.8 °F 10.9 °F 71% 30.07 in 5.0 mi SW 11.5 mph - 0.00 in Snow Light Snow
12:53 PM 19.9 °F 8.6 °F 10.9 °F 68% 30.03 in 10.0 mi SW 10.4 mph - 0.00 in   Overcast
1:53 PM 21.9 °F 11.7 °F 12.9 °F 68% 30.00 in 8.0 mi SW 9.2 mph - 0.00 in Snow Light Snow
2:53 PM 21.9 °F 11.0 °F 12.9 °F 68% 29.99 in 8.0 mi South 10.4 mph - 0.00 in   Overcast
3:51 PM 21.2 °F 10.9 °F 12.2 °F 68% 29.92 in 10.0 mi SSE 9.2 mph - N/A   Scattered Clouds
3:53 PM 21.9 °F 11.0 °F 12.0 °F 66% 29.96 in 10.0 mi SE 10.4 mph - N/A   Scattered Clouds
4:35 PM 23.0 °F 13.1 °F 12.9 °F 65% 29.92 in 10.0 mi SSE 9.2 mph - N/A   Mostly Cloudy
4:53 PM 21.9 °F 10.4 °F 12.9 °F 68% 29.97 in 10.0 mi SSE 11.5 mph - N/A   Overcast
5:53 PM 21.9 °F 11.7 °F 12.9 °F 68% 29.96 in 10.0 mi SSE 9.2 mph - N/A   Overcast
6:01 PM 21.9 °F 11.0 °F 14.0 °F 72% 29.92 in 10.0 mi SSE 10.4 mph - N/A   Overcast
6:53 PM 21.9 °F 11.0 °F 16.0 °F 78% 29.93 in 3.0 mi SE 10.4 mph - 0.00 in Snow Light Snow
7:02 PM 21.9 °F 11.7 °F 16.0 °F 78% 29.89 in 2.0 mi SSE 9.2 mph - 0.00 in Snow Light Snow
7:16 PM 21.0 °F 10.6 °F 16.0 °F 81% 29.89 in 1.5 mi SSE 9.2 mph - 0.00 in Snow Light Snow
7:48 PM 21.2 °F 12.6 °F 17.6 °F 86% 29.89 in 1.0 mi SSE 6.9 mph - 0.00 in Snow Light Snow
7:49 PM 21.0 °F 12.4 °F 18.0 °F 88% 29.94 in 1.0 mi SSE 6.9 mph - 0.00 in Snow Light Snow
8:12 PM 21.0 °F 11.4 °F 18.0 °F 88% 29.88 in 0.8 mi SE 8.1 mph - 0.01 in Snow Light Snow
8:24 PM 21.0 °F 12.4 °F 18.0 °F 88% 29.88 in 1.0 mi SE 6.9 mph - 0.02 in Snow Light Snow
8:53 PM 21.0 °F 12.4 °F 18.0 °F 88% 29.91 in 1.0 mi SE 6.9 mph - 0.02 in Snow Light Snow
9:04 PM 21.0 °F 12.4 °F 18.0 °F 88% 29.87 in 1.2 mi SE 6.9 mph - 0.01 in Snow Light Snow
9:28 PM 21.0 °F 11.4 °F 18.0 °F 88% 29.86 in 2.5 mi SE 8.1 mph - 0.01 in Snow Light Snow
9:53 PM 21.0 °F 10.6 °F 17.1 °F 85% 29.89 in 2.5 mi SE 9.2 mph - 0.01 in Snow Light Snow
10:04 PM 21.0 °F 11.4 °F 18.0 °F 88% 29.84 in 2.0 mi SE 8.1 mph - 0.00 in Snow Light Snow
10:16 PM 21.0 °F 10.6 °F 18.0 °F 88% 29.84 in 1.5 mi SE 9.2 mph - 0.00 in Snow Light Snow
10:30 PM 21.0 °F 11.4 °F 18.0 °F 88% 29.83 in 1.8 mi SE 8.1 mph - 0.00 in Snow Light Snow
10:39 PM 21.0 °F 11.4 °F 18.0 °F 88% 29.83 in 2.0 mi SE 8.1 mph - 0.00 in Snow Light Snow
10:44 PM 21.0 °F 10.6 °F 18.0 °F 88% 29.82 in 3.0 mi SE 9.2 mph - 0.00 in Snow Light Snow
10:53 PM 21.0 °F 11.4 °F 18.0 °F 88% 29.86 in 4.0 mi SE 8.1 mph - 0.00 in Snow Light Snow
11:36 PM 21.9 °F 12.5 °F 18.0 °F 85% 29.80 in 2.5 mi SE 8.1 mph - 0.00 in Snow Light Snow
11:53 PM 21.9 °F 13.4 °F 18.0 °F 85% 29.83 in 3.0 mi SE 6.9 mph - 0.00 in Snow Light Snow